Location: Владивосток
(43.1151°N, 131.8856°E)
Time: 12:16:19
(UTC+10:00)

VELOX 1 - Pass Details

Date: 01 July 2022
Orbit: 624 x 639 km, 98.4° (Epoch: 08 August)

Event Time Altitude Azimuth Distance (km) Brightness Sun altitude
Rises 04:39:16 0° 131° (SE) 2,919 ? -9.0°
Reaches altitude 10° 04:41:49 10° 116° (ESE) 2,019 ? -8.6°
Maximum altitude 04:45:13 22° 65° (ENE) 1,382 ? -8.2°
Drops below altitude 10° 04:48:39 10° 14° (NNE) 2,036 ? -7.7°
Sets 04:51:14 0° 0° (N) 2,952 ? -7.4°
